"datetime","# probes","# resolvers","can_ipv6","can_ipv6_prbs","can_tcp","can_tcp_prbs","can_tcp6","can_tcp6_prbs","does_ecs","does_ecs_prbs","does_flagday","does_flagday_prbs","does_rov4","does_rov4_prbs","does_rov6","does_rov6_prbs","does_qnamemin","doesnt_qnamemin","does_qnamemin_prbs","doesnt_qnamemin_prbs","does_nxdomain","doesnt_nxdomain","does_nxdomain_prbs","doesnt_nxdomain_prbs","has_ta_19036","hasnt_ta_19036","has_ta_19036_prbs","hasnt_ta_19036_prbs","has_ta_20326","hasnt_ta_20326","has_ta_20326_prbs","hasnt_ta_20326_prbs","can_rsamd5","cannot_rsamd5","broken_rsamd5","can_rsamd5_prbs","cannot_rsamd5_prbs","broken_rsamd5_prbs","can_dsa","cannot_dsa","broken_dsa","can_dsa_prbs","cannot_dsa_prbs","broken_dsa_prbs","can_rsasha1","cannot_rsasha1","broken_rsasha1","can_rsasha1_prbs","cannot_rsasha1_prbs","broken_rsasha1_prbs","can_dsansec3","cannot_dsansec3","broken_dsansec3","can_dsansec3_prbs","cannot_dsansec3_prbs","broken_dsansec3_prbs","can_rsansec3","cannot_rsansec3","broken_rsansec3","can_rsansec3_prbs","cannot_rsansec3_prbs","broken_rsansec3_prbs","can_rsasha256","cannot_rsasha256","broken_rsasha256","can_rsasha256_prbs","cannot_rsasha256_prbs","broken_rsasha256_prbs","can_rsasha512","cannot_rsasha512","broken_rsasha512","can_rsasha512_prbs","cannot_rsasha512_prbs","broken_rsasha512_prbs","can_eccgost","cannot_eccgost","broken_eccgost","can_eccgost_prbs","cannot_eccgost_prbs","broken_eccgost_prbs","can_ecdsa256","cannot_ecdsa256","broken_ecdsa256","can_ecdsa256_prbs","cannot_ecdsa256_prbs","broken_ecdsa256_prbs","can_ecdsa384","cannot_ecdsa384","broken_ecdsa384","can_ecdsa384_prbs","cannot_ecdsa384_prbs","broken_ecdsa384_prbs","can_ed25519","cannot_ed25519","broken_ed25519","can_ed25519_prbs","cannot_ed25519_prbs","broken_ed25519_prbs","can_ed448","cannot_ed448","broken_ed448","can_ed448_prbs","cannot_ed448_prbs","broken_ed448_prbs","can_gost","cannot_gost","broken_gost","can_gost_prbs","cannot_gost_prbs","broken_gost_prbs","can_sha384","cannot_sha384","broken_sha384","can_sha384_prbs","cannot_sha384_prbs","broken_sha384_prbs","is_internal","is_forwarding","is_external","is_internal_prbs","is_forwarding_prbs","is_external_prbs"
2017-06-20T23:59:55Z,75,125,120,71,125,75,120,71,29,16,0,0,0,0,0,0,0,125,0,75,0,125,0,75,0,0,0,0,0,0,0,0,13,71,41,11,51,24,81,29,15,55,18,10,125,0,0,75,4,0,79,29,15,54,18,10,123,0,0,74,4,0,123,0,0,74,4,0,124,0,0,75,4,0,73,36,15,50,21,10,123,0,0,74,4,0,125,0,0,75,4,0,1,109,15,1,69,10,0,107,17,0,69,11,102,7,14,65,8,9,124,0,0,75,4,0,91,10,24,57,11,12
2017-06-21T23:59:55Z,76,126,121,72,126,76,121,72,30,17,0,0,0,0,0,0,0,126,0,76,0,126,0,76,0,0,0,0,0,0,0,0,14,72,40,12,52,23,81,30,15,56,19,10,126,0,0,76,4,0,82,29,14,58,18,9,126,0,0,76,4,0,124,0,0,75,4,0,125,0,0,76,4,0,75,36,14,52,21,9,126,0,0,76,4,0,126,0,0,76,4,0,1,112,13,1,72,8,0,109,16,0,71,11,105,8,13,67,9,8,124,1,0,75,5,0,92,10,24,58,11,12
2017-06-22T23:59:56Z,78,131,126,74,131,78,126,74,29,15,0,0,0,0,0,0,3,128,2,76,0,131,0,78,0,0,0,0,0,0,0,0,12,74,45,11,53,26,84,31,16,58,19,11,131,0,0,78,4,0,86,30,14,60,18,9,131,0,0,78,4,0,131,0,0,78,4,0,131,0,0,78,4,0,76,37,18,53,21,12,131,0,0,78,4,0,131,0,0,78,4,0,0,113,18,0,72,12,0,113,18,0,72,12,105,7,19,66,8,12,129,0,0,77,4,0,96,11,24,60,12,12
2017-06-23T23:59:55Z,79,132,127,75,132,79,127,75,31,17,0,0,0,0,0,0,3,129,2,77,0,132,0,79,0,0,0,0,0,0,0,0,12,73,47,10,54,28,85,31,16,58,19,10,132,0,0,79,5,0,86,31,15,59,19,10,132,0,0,79,5,0,132,0,0,79,5,0,132,0,0,79,5,0,76,38,18,52,22,12,132,0,0,79,5,0,132,0,0,79,5,0,1,112,19,1,72,13,0,115,17,0,74,11,107,7,18,68,9,12,130,0,0,78,5,0,96,12,24,60,13,12
2017-06-24T23:59:56Z,78,129,124,74,129,78,124,74,31,17,0,0,0,0,0,0,3,126,2,76,0,129,0,78,0,0,0,0,0,0,0,0,12,74,43,11,54,25,84,31,14,58,20,9,129,0,0,78,5,0,84,30,15,57,20,10,129,0,0,78,5,0,129,0,0,78,5,0,129,0,0,78,5,0,74,36,19,50,22,13,129,0,0,78,5,0,129,0,0,78,5,0,0,109,20,0,70,13,1,111,17,1,72,11,104,7,18,67,9,12,127,0,0,77,5,0,95,10,24,60,11,12
2017-06-25T23:59:56Z,80,132,127,77,132,80,126,76,29,16,0,0,0,0,0,0,3,129,2,78,0,132,0,80,0,0,0,0,0,0,0,0,12,75,45,10,53,27,85,31,16,58,21,11,131,1,0,79,6,0,87,30,15,59,20,10,131,1,0,79,6,0,131,1,0,79,6,0,131,1,0,79,6,0,78,37,17,54,23,11,132,0,0,80,5,0,132,0,0,80,5,0,2,113,17,2,73,11,0,116,16,0,75,10,105,9,18,67,11,12,129,2,0,77,7,0,97,11,24,61,12,12
2017-06-26T23:59:56Z,79,130,125,75,130,79,123,73,30,17,0,0,0,0,0,0,3,127,2,77,0,130,0,79,0,0,0,0,0,0,0,0,12,73,45,11,53,27,85,31,14,58,21,9,129,1,0,78,6,0,85,30,15,58,20,10,129,1,0,78,6,0,129,1,0,78,6,0,129,1,0,78,6,0,74,37,19,51,23,13,130,0,0,79,5,0,130,0,0,79,5,0,0,113,17,0,73,11,0,112,18,0,73,12,105,8,17,67,10,11,128,1,0,77,6,0,95,11,24,60,12,12
2017-06-27T23:59:59Z,78,128,123,74,128,78,122,73,29,16,0,0,0,0,0,0,3,125,2,76,0,128,0,78,0,0,0,0,0,0,0,0,13,72,43,11,52,26,85,31,12,59,21,8,128,0,0,78,6,0,87,30,11,60,20,7,128,0,0,78,6,0,128,0,0,78,6,0,128,0,0,78,6,0,74,37,17,51,23,12,128,0,0,78,6,0,128,0,0,78,6,0,0,113,15,0,73,10,1,113,14,1,73,9,105,7,16,67,10,11,127,0,0,77,6,0,93,11,24,59,12,12
2017-06-28T23:59:56Z,78,129,124,74,129,78,123,73,31,18,0,0,0,0,0,0,3,126,2,76,0,129,0,78,0,0,0,0,0,0,0,0,12,75,42,10,53,25,87,30,12,60,21,8,129,0,0,78,6,0,85,32,12,58,22,8,129,0,0,78,6,0,129,0,0,78,6,0,129,0,0,78,6,0,77,36,16,53,23,11,129,0,0,78,6,0,129,0,0,78,6,0,0,113,16,0,73,11,0,115,14,0,74,9,107,7,15,68,10,10,128,0,0,77,6,0,95,10,24,60,12,12
2017-06-29T23:59:57Z,80,134,129,76,134,80,128,75,31,17,0,0,0,0,0,0,4,130,2,78,0,134,0,80,0,0,0,0,0,0,0,0,12,77,45,10,56,26,91,32,11,62,21,7,134,0,0,80,6,0,90,32,12,61,21,8,134,0,0,80,6,0,134,0,0,80,6,0,134,0,0,80,6,0,77,39,18,53,24,12,134,0,0,80,6,0,134,0,0,80,6,0,1,116,17,1,74,10,1,116,17,1,74,11,111,7,16,70,10,10,133,0,0,79,6,0,97,13,24,61,13,12
2017-06-30T23:59:59Z,81,133,128,77,133,81,125,76,31,18,0,0,0,0,0,0,3,130,2,79,0,133,0,81,0,0,0,0,0,0,0,0,12,74,47,10,53,29,88,32,13,60,21,9,131,2,0,80,7,0,88,32,13,60,21,9,133,0,0,81,6,0,133,0,0,81,6,0,133,0,0,81,6,0,78,39,16,53,24,11,133,0,0,81,6,0,133,0,0,81,6,0,0,117,16,0,76,11,0,116,17,0,75,12,108,9,16,69,11,11,130,2,0,79,7,0,95,14,24,60,14,12
2017-07-01T23:59:56Z,80,132,127,76,132,80,126,75,32,18,0,0,0,0,0,0,3,129,2,78,0,132,0,80,0,0,0,0,0,0,0,0,12,73,47,10,52,28,89,31,12,61,20,8,132,0,0,80,5,0,87,32,13,59,21,9,130,2,0,79,6,0,130,2,0,79,6,0,130,2,0,79,6,0,76,39,17,52,24,12,132,0,0,80,5,0,132,0,0,80,5,0,0,116,16,0,74,11,0,113,19,0,72,13,107,9,16,68,10,11,131,0,0,79,5,0,95,13,24,60,13,12
2017-07-02T23:59:59Z,81,133,127,77,133,81,126,76,33,19,0,0,0,0,0,0,3,130,2,79,0,132,0,81,0,0,0,0,0,0,0,0,14,77,42,12,56,26,86,35,12,58,23,9,131,2,0,80,8,0,87,33,13,59,22,10,131,2,0,80,8,0,131,2,0,80,8,0,131,2,0,80,8,0,76,39,18,52,24,12,133,0,0,81,7,0,133,0,0,81,7,0,1,117,15,1,75,10,0,118,15,0,76,11,111,9,13,71,12,9,131,0,0,80,7,0,95,13,25,61,13,13
2017-07-03T23:59:59Z,81,133,128,77,133,81,127,76,31,17,0,0,0,0,0,0,4,129,2,79,0,133,0,81,0,0,0,0,0,0,0,0,11,75,47,9,55,29,87,33,13,58,22,10,132,1,0,80,8,0,89,32,12,60,21,9,130,3,0,79,9,0,131,2,0,80,8,0,131,2,0,80,8,0,77,39,17,52,25,11,133,0,0,81,7,0,133,0,0,81,7,0,0,119,14,0,77,9,1,118,14,1,77,9,111,7,15,70,12,10,131,1,0,79,8,0,95,13,25,61,13,13
2017-07-04T23:59:56Z,81,133,128,77,133,81,126,76,32,17,0,0,0,0,0,0,3,130,2,79,0,133,0,81,0,0,0,0,0,0,0,0,12,75,46,10,56,28,88,33,12,60,21,9,133,0,0,81,7,0,87,33,13,59,21,10,132,1,0,80,8,0,132,1,0,80,8,0,132,1,0,80,8,0,80,40,13,54,25,9,133,0,0,81,7,0,133,0,0,81,7,0,0,120,13,0,78,9,1,119,13,1,77,9,114,7,12,72,12,8,131,1,0,79,8,0,95,11,27,62,12,14
2017-07-05T23:59:56Z,79,130,125,75,130,79,124,74,31,16,0,0,0,0,0,0,3,127,2,77,0,130,0,79,0,0,0,0,0,0,0,0,12,74,44,10,54,26,86,32,12,58,20,9,130,0,0,79,6,0,87,33,10,59,21,7,129,1,0,78,7,0,129,1,0,78,7,0,129,1,0,78,7,0,76,39,15,51,24,10,130,0,0,79,6,0,130,0,0,79,6,0,3,115,12,3,73,8,2,113,15,2,72,10,110,6,14,69,10,9,128,1,0,77,7,0,93,10,27,61,11,14
2017-07-06T23:59:59Z,77,128,123,73,128,77,121,72,32,17,0,0,0,0,0,0,3,125,2,75,0,128,0,77,0,0,0,0,0,0,0,0,12,73,43,10,53,25,84,34,10,57,22,7,128,0,0,77,7,0,84,34,10,56,22,7,128,0,0,77,7,0,128,0,0,77,7,0,128,0,0,77,7,0,75,40,13,50,24,9,128,0,0,77,7,0,128,0,0,77,7,0,1,116,11,1,73,7,1,114,13,1,72,9,109,7,12,68,11,8,127,0,0,76,7,0,90,11,27,58,12,14
2017-07-07T23:59:56Z,76,127,122,72,127,76,121,71,32,17,0,0,0,0,0,0,3,124,2,74,0,127,0,76,0,0,0,0,0,0,0,0,11,73,43,9,52,25,86,32,9,58,20,6,127,0,0,76,6,0,86,32,9,58,20,6,127,0,0,76,6,0,127,0,0,76,6,0,127,0,0,76,6,0,76,39,12,51,23,8,127,0,0,76,6,0,127,0,0,76,6,0,2,114,11,2,72,7,1,114,12,1,72,8,108,7,12,67,10,8,126,0,0,75,6,0,90,10,27,58,11,14
2017-07-08T23:59:59Z,77,128,123,73,128,77,122,72,34,19,0,0,0,0,0,0,1,127,1,76,0,128,0,77,0,0,0,0,0,0,0,0,11,75,42,9,56,25,81,35,12,55,23,9,128,0,0,77,8,0,86,33,9,59,22,6,128,0,0,77,8,0,128,0,0,77,8,0,128,0,0,77,8,0,77,40,11,52,25,8,128,0,0,77,8,0,128,0,0,77,8,0,2,116,10,2,75,7,1,117,10,1,75,7,111,6,11,70,12,8,128,0,0,77,8,0,90,11,27,58,12,14
2017-07-09T23:59:59Z,78,130,125,74,130,78,123,73,37,20,0,0,0,0,0,0,0,130,0,78,0,130,0,78,0,0,0,0,0,0,0,0,15,75,40,12,55,23,86,34,10,58,22,7,129,1,0,77,8,0,85,36,9,58,23,6,129,1,0,77,8,0,129,1,0,77,8,0,129,1,0,77,8,0,79,41,10,54,25,7,130,0,0,78,7,0,130,0,0,78,7,0,1,118,11,1,74,8,1,118,11,1,74,8,112,8,10,70,12,7,129,1,0,77,8,0,90,13,27,58,14,14
2017-07-10T23:59:59Z,81,136,131,77,136,81,130,76,32,16,0,0,0,0,0,0,3,133,2,79,0,136,0,81,0,0,0,0,0,0,0,0,12,79,45,10,58,25,90,36,10,61,22,7,136,0,0,81,7,0,93,34,9,63,21,6,136,0,0,81,7,0,136,0,0,81,7,0,136,0,0,81,7,0,83,41,12,56,24,8,136,0,0,81,7,0,136,0,0,81,7,0,2,123,11,2,77,7,1,122,13,1,77,8,116,7,13,73,11,8,135,0,0,80,7,0,97,12,27,62,12,14
2017-07-11T23:59:56Z,81,135,130,77,135,81,129,76,33,17,0,0,0,0,0,0,1,134,1,80,0,135,0,81,0,0,0,0,0,0,0,0,14,79,42,12,58,24,91,35,9,62,22,6,134,1,0,80,8,0,90,35,10,62,22,7,134,1,0,80,8,0,134,1,0,80,8,0,134,1,0,80,8,0,81,43,11,54,26,8,135,0,0,81,7,0,135,0,0,81,7,0,1,124,10,1,78,7,0,122,13,0,77,9,116,8,11,72,12,8,133,1,0,79,8,0,96,12,27,62,12,14
2017-07-12T23:59:56Z,79,132,127,75,132,79,126,74,31,16,0,0,0,0,0,0,1,131,1,78,0,132,0,79,0,0,0,0,0,0,0,0,13,80,39,11,56,22,87,34,11,59,21,8,132,0,0,79,5,0,90,31,11,62,19,8,131,1,0,78,6,0,131,1,0,78,6,0,131,1,0,78,6,0,79,39,14,53,23,10,132,0,0,79,5,0,132,0,0,79,5,0,2,119,11,2,75,8,1,121,10,1,76,7,115,7,10,72,9,7,130,1,0,77,6,0,96,11,25,62,10,13
2017-07-13T23:59:55Z,79,131,126,76,131,79,125,74,30,15,0,0,0,0,0,0,1,130,1,78,0,131,0,79,0,0,0,0,0,0,0,0,12,80,39,11,57,22,89,33,9,62,21,6,131,0,0,79,5,0,88,31,12,61,19,9,131,0,0,79,5,1,131,0,0,79,5,0,131,0,0,79,5,0,82,40,9,56,24,6,131,0,0,79,5,1,131,0,0,79,5,1,0,122,9,0,78,7,1,120,10,1,77,8,111,8,12,70,10,9,130,0,0,78,5,0,96,11,24,62,10,13
2017-07-14T23:59:56Z,79,132,127,76,132,79,126,74,29,14,0,0,0,0,0,0,1,131,1,78,0,132,0,79,0,0,0,0,0,0,0,0,12,78,42,10,55,24,91,33,8,63,21,5,132,0,0,79,5,0,93,31,8,64,19,5,132,0,0,79,5,0,132,0,0,79,5,0,132,0,0,79,5,0,54,67,11,37,42,8,132,0,0,79,5,0,132,0,0,79,5,0,0,120,12,0,76,9,1,121,10,1,76,7,79,39,14,49,31,10,131,0,0,78,5,0,96,11,25,62,10,13
2017-07-15T23:59:59Z,80,133,128,77,133,80,127,75,32,17,0,0,0,0,0,0,1,132,1,79,0,133,0,80,0,0,0,0,0,0,0,0,14,79,40,12,56,23,91,32,10,62,20,7,133,0,0,80,6,0,88,33,12,60,21,8,133,0,0,80,6,0,133,0,0,80,6,0,133,0,0,80,6,0,49,71,13,34,45,9,133,0,0,80,6,0,133,0,0,80,6,0,0,123,10,0,78,7,0,123,10,0,78,7,81,43,9,50,34,6,132,0,0,79,6,0,96,12,25,62,11,13
2017-07-16T23:59:57Z,80,133,128,77,133,80,127,75,31,16,0,0,0,0,0,0,1,132,1,79,0,133,0,80,0,0,0,0,0,0,0,0,12,81,40,10,57,23,90,33,10,62,20,7,133,0,0,80,5,0,91,33,9,62,21,6,132,1,0,79,6,0,132,1,0,79,6,0,132,1,0,79,6,0,48,75,10,33,48,7,133,0,0,80,5,0,133,0,0,80,5,0,1,119,13,1,76,9,0,122,11,0,77,8,76,46,11,46,36,8,131,1,0,78,6,0,97,11,25,63,10,13
2017-07-17T23:59:56Z,82,141,136,79,141,82,135,77,38,18,0,0,0,0,0,0,3,138,2,80,0,141,0,82,0,0,0,0,0,0,0,0,13,81,47,11,58,25,95,37,9,65,21,6,139,2,0,81,6,0,92,37,12,63,21,9,138,3,0,80,7,0,138,3,0,80,7,0,138,3,0,80,7,0,33,95,13,23,58,9,141,0,0,82,5,0,141,0,0,82,5,0,0,127,14,0,78,9,0,129,12,0,79,8,66,61,14,37,44,9,137,3,0,79,7,0,99,13,29,64,11,13
2017-07-18T23:59:54Z,78,133,128,75,133,78,127,73,35,18,0,0,0,0,0,0,3,130,2,76,0,133,0,78,0,0,0,0,0,0,0,0,12,73,48,11,51,26,89,34,10,60,20,7,133,0,0,78,5,0,86,34,13,58,20,9,133,0,0,78,5,0,133,0,0,78,5,0,133,0,0,78,5,0,38,80,15,27,48,10,133,0,0,78,5,0,133,0,0,78,5,0,3,118,12,2,73,8,0,120,13,0,74,9,66,54,13,37,40,9,132,0,0,77,5,0,96,10,27,61,9,13
2017-07-19T23:59:55Z,78,133,128,75,133,78,127,73,33,16,0,0,0,0,0,0,3,130,2,76,0,133,0,78,0,0,0,0,0,0,0,0,11,78,44,10,54,24,89,34,10,60,20,7,133,0,0,78,5,0,88,34,11,59,20,8,133,0,0,78,5,0,133,0,0,78,5,0,133,0,0,78,5,0,30,89,14,21,54,10,133,0,0,78,5,0,133,0,0,78,5,0,0,118,15,0,73,11,1,119,13,1,74,9,61,61,11,36,44,7,132,0,0,77,5,0,96,10,27,61,9,13
2017-07-20T23:59:55Z,79,134,129,76,134,79,128,74,40,21,0,0,0,0,0,0,3,131,2,77,0,134,0,79,0,0,0,0,0,0,0,0,10,80,44,10,56,24,87,37,10,60,22,6,132,2,0,78,7,0,86,37,11,59,22,7,132,2,0,78,7,0,132,2,0,78,7,0,132,2,0,78,7,0,32,89,13,22,54,9,134,0,0,79,6,0,134,0,0,79,6,0,0,122,12,0,76,8,1,121,12,1,75,8,63,57,14,38,41,9,131,2,0,77,7,0,96,11,27,61,10,13
2017-07-21T23:59:55Z,77,131,126,74,131,77,125,72,35,17,0,0,0,0,0,0,3,128,2,75,0,131,0,77,0,0,0,0,0,0,0,0,9,78,44,9,54,24,84,37,10,57,22,7,131,0,0,77,5,0,87,33,11,60,19,7,131,0,0,77,5,0,131,0,0,77,5,0,131,0,0,77,5,0,31,88,12,22,53,8,131,0,0,77,5,0,131,0,0,77,5,0,1,117,13,1,73,8,0,118,13,0,74,9,61,58,12,36,41,8,130,0,0,76,5,0,96,8,27,61,8,13
2017-07-22T23:59:58Z,80,133,128,77,133,80,127,75,33,16,0,0,0,0,0,0,3,130,2,78,0,133,0,80,0,0,0,0,0,0,0,0,8,77,48,8,56,28,87,36,10,61,21,8,133,0,0,80,6,1,87,34,12,60,20,10,132,1,0,79,7,1,132,1,0,79,7,1,132,1,0,79,7,1,27,90,16,19,57,13,133,0,0,80,6,1,133,0,0,80,6,1,2,116,15,2,74,11,1,120,12,1,76,9,60,58,15,35,44,11,131,1,0,78,7,1,97,9,27,63,9,13
2017-07-23T23:59:57Z,81,137,132,78,137,81,131,76,37,18,0,0,0,0,0,0,4,133,2,79,0,137,0,81,0,0,0,0,0,0,0,0,8,82,47,8,58,26,87,37,13,59,22,9,135,2,0,80,7,0,88,37,12,60,22,9,134,3,0,79,8,0,134,3,0,79,8,0,134,3,0,79,8,0,27,98,12,19,61,7,137,0,0,81,6,0,137,0,0,81,6,0,1,123,13,1,78,8,0,123,14,0,77,9,61,64,12,36,47,7,133,3,0,78,8,0,99,11,27,63,10,13
2017-07-24T23:59:56Z,73,126,121,70,126,73,120,68,36,18,0,0,0,0,0,0,3,123,2,71,0,126,0,73,0,0,0,0,0,0,0,0,10,74,42,9,51,23,84,35,7,56,21,5,121,5,0,71,8,0,83,36,7,55,22,5,121,4,1,70,8,1,120,6,0,70,9,0,121,5,0,71,9,0,31,86,9,21,51,6,123,3,0,72,8,0,126,0,0,73,5,0,2,113,11,2,70,8,0,115,11,0,70,8,59,52,15,34,37,10,120,5,0,70,9,0,87,12,27,55,10,13
2017-07-25T23:59:56Z,74,124,119,71,124,74,118,69,34,17,0,0,0,0,0,0,3,121,2,72,0,124,0,74,0,0,0,0,0,0,0,0,11,69,44,10,49,26,83,36,5,55,22,6,122,2,0,73,8,0,80,38,6,53,24,7,121,3,0,72,10,0,122,2,0,73,8,0,118,6,0,72,11,0,34,81,9,22,49,9,123,1,0,74,7,0,124,0,0,74,8,0,1,111,12,1,69,9,3,113,8,4,70,8,64,52,8,38,39,7,118,5,0,71,10,0,86,11,27,56,10,13
2017-07-26T23:59:57Z,70,119,114,67,119,70,112,64,33,16,0,0,0,0,0,0,3,116,2,68,0,119,0,70,0,0,0,0,0,0,0,0,13,65,41,12,46,23,78,34,7,52,21,6,115,4,0,68,9,0,80,33,6,54,21,4,118,1,0,70,6,0,117,2,0,69,7,0,117,2,0,69,7,0,32,77,10,22,47,8,118,1,0,70,6,0,119,0,0,70,6,0,2,108,9,2,67,6,1,110,8,1,68,7,65,43,11,38,32,9,115,3,0,68,8,0,82,10,27,53,9,13
2017-07-27T23:59:57Z,80,135,130,77,135,80,129,75,35,18,0,0,0,0,0,0,3,132,2,78,0,135,0,80,0,0,0,0,0,0,0,0,10,80,45,9,57,24,89,36,10,61,21,7,135,0,0,80,5,0,90,37,8,62,22,5,135,0,0,80,5,0,135,0,0,80,5,0,135,0,0,80,5,0,30,89,16,21,57,11,135,0,0,80,5,0,135,0,0,80,5,0,2,117,16,1,73,11,1,119,15,1,74,10,67,56,12,40,41,8,134,0,0,79,5,0,98,10,27,63,9,13
2017-07-28T23:59:56Z,84,139,134,81,139,84,133,79,36,18,0,0,0,0,0,0,3,136,2,82,0,139,0,84,0,0,0,0,0,0,0,0,14,81,44,12,59,24,92,38,9,65,23,6,137,2,0,83,7,0,92,39,8,64,24,5,136,3,0,82,8,0,136,3,0,82,8,0,136,3,0,82,8,0,36,90,13,25,58,9,139,0,0,84,6,0,139,0,0,84,6,0,0,126,13,0,80,9,0,127,12,0,81,8,72,56,11,43,43,7,137,1,0,82,7,0,99,13,27,65,11,13
2017-07-29T23:59:59Z,81,133,128,78,133,81,126,75,34,18,0,0,0,0,0,0,3,130,2,79,0,133,0,81,0,0,0,0,0,0,0,0,13,77,43,11,56,25,88,35,10,61,22,7,133,0,0,81,6,0,90,31,12,63,19,8,132,0,1,80,6,1,132,0,1,80,6,1,132,0,1,80,6,1,33,87,13,22,58,9,132,0,1,80,6,1,133,0,0,81,6,0,0,120,13,0,78,9,2,118,13,2,77,9,64,53,16,38,41,11,132,0,0,80,6,0,98,11,24,64,10,12
2017-07-30T23:59:56Z,81,135,130,78,135,81,129,76,38,19,0,0,0,0,0,0,3,132,2,79,0,135,0,81,0,0,0,0,0,0,0,0,10,80,44,10,59,24,88,37,10,62,21,7,135,0,0,81,6,0,90,35,10,63,20,7,133,1,0,80,7,0,133,1,0,80,7,0,134,1,0,80,7,0,36,85,14,25,53,10,135,0,0,81,6,0,135,0,0,81,6,0,1,118,16,1,76,10,1,121,13,1,77,9,63,58,13,37,44,9,133,0,0,80,6,0,99,12,24,65,9,12
2017-07-31T23:59:58Z,79,131,126,76,131,79,124,73,36,19,0,0,0,0,0,0,3,128,2,77,0,130,0,78,0,0,0,0,0,0,0,0,8,74,48,8,54,28,87,35,9,61,21,6,131,0,0,79,5,0,85,36,10,59,22,7,130,0,0,79,5,0,131,0,0,79,5,0,131,0,0,79,5,0,32,87,12,23,55,8,131,0,0,79,5,0,131,0,0,79,5,0,0,120,11,0,77,7,2,118,11,2,76,7,62,56,13,37,42,8,130,0,0,78,5,0,97,10,24,63,9,12
2017-08-01T23:59:59Z,82,133,128,79,133,82,126,76,31,16,0,0,0,0,0,0,3,130,2,80,0,133,0,82,0,0,0,0,0,0,0,0,10,81,42,10,59,24,89,36,8,63,23,5,132,1,0,81,6,0,91,33,9,64,21,6,132,1,0,81,6,0,132,1,0,81,6,0,132,1,0,81,6,0,37,83,13,26,54,9,132,1,0,81,6,0,133,0,0,82,5,0,2,118,13,1,77,9,0,122,11,0,80,7,65,56,12,40,42,8,131,1,0,80,6,0,98,11,24,64,11,12
2017-08-02T23:59:59Z,82,137,132,79,137,82,131,77,37,18,0,0,0,0,0,0,3,134,2,80,0,137,0,82,0,0,0,0,0,0,0,0,11,79,47,10,56,26,87,38,12,61,22,8,135,2,0,81,6,0,89,38,10,63,22,7,135,2,0,81,6,0,135,2,0,81,6,0,135,2,0,81,6,0,36,88,13,26,55,9,137,0,0,82,5,0,137,0,0,82,5,0,3,119,15,2,75,11,0,123,14,0,77,10,68,57,12,40,42,8,134,2,0,80,6,0,98,12,27,64,10,13
2017-08-03T23:59:58Z,82,136,131,79,136,82,130,77,34,16,0,0,0,0,0,0,3,133,2,80,0,136,0,82,0,0,0,0,0,0,0,0,9,79,48,9,57,27,89,37,10,62,22,7,136,0,0,82,5,0,90,36,10,63,21,7,136,0,0,82,5,0,136,0,0,82,5,0,136,0,0,82,5,0,35,86,15,25,54,11,136,0,0,82,5,0,136,0,0,82,5,0,0,122,14,0,78,10,2,121,13,1,79,9,68,55,13,40,41,9,134,1,0,80,6,0,99,10,27,65,9,13
2017-08-04T23:59:57Z,81,136,131,78,136,81,131,77,37,19,0,0,0,0,0,0,3,133,2,79,0,136,0,81,0,0,0,0,0,0,0,0,9,80,47,8,57,26,87,38,11,60,22,8,136,0,0,81,5,0,89,35,12,61,20,9,136,0,0,81,5,0,136,0,0,81,5,0,136,0,0,81,5,0,34,82,20,25,50,14,136,0,0,81,5,0,136,0,0,81,5,0,0,120,16,0,75,12,1,120,15,1,75,10,67,55,14,40,40,9,135,0,0,80,5,0,99,10,27,64,9,13
2017-08-05T23:59:58Z,83,139,134,80,139,83,133,79,36,18,0,0,0,0,0,0,3,136,2,81,0,139,0,83,0,0,0,0,0,0,0,0,13,82,44,11,58,24,90,39,10,62,23,7,137,2,0,82,6,0,93,38,8,64,23,5,137,2,0,82,6,0,137,2,0,82,6,0,137,2,0,82,6,0,39,87,13,27,54,9,139,0,0,83,5,0,139,0,0,83,5,0,0,125,14,0,79,9,2,124,13,2,78,8,70,57,12,42,41,8,136,2,0,81,6,0,99,13,27,64,11,13
2017-08-06T23:59:59Z,84,140,135,81,140,84,135,80,36,18,0,0,0,0,0,0,3,137,2,82,0,140,0,84,0,0,0,0,0,0,0,0,10,80,50,9,57,29,93,36,11,64,21,8,140,0,0,84,5,0,90,38,12,62,23,9,140,0,0,84,5,0,140,0,0,84,5,0,140,0,0,84,5,0,38,90,12,27,56,8,140,0,0,84,5,0,140,0,0,84,5,0,0,127,13,0,81,9,5,123,12,3,78,8,70,58,12,41,43,8,138,1,0,82,6,0,101,12,27,66,10,13
2017-08-07T23:59:59Z,82,138,133,79,138,82,133,78,36,18,0,0,0,0,0,0,3,135,2,80,0,138,0,82,0,0,0,0,0,0,0,0,10,81,47,9,58,26,91,36,11,62,21,8,138,0,0,82,5,0,93,35,10,64,21,7,138,0,0,82,5,0,138,0,0,82,5,0,138,0,0,82,5,0,35,88,15,24,55,11,138,0,0,82,5,0,138,0,0,82,5,0,0,120,18,0,76,12,1,124,13,1,78,9,68,56,14,41,40,9,137,0,0,81,5,0,100,11,27,64,10,13
2017-08-08T23:59:58Z,84,141,136,81,141,84,136,80,37,19,0,0,0,0,0,0,3,138,2,82,0,141,0,84,0,0,0,0,0,0,0,0,10,81,50,9,59,27,93,39,9,64,23,6,140,1,0,83,6,0,92,39,10,63,23,7,140,1,0,83,6,0,140,1,0,83,6,0,140,1,0,83,6,0,41,85,15,30,52,10,141,0,0,84,5,0,141,0,0,84,5,0,1,127,13,1,80,9,0,130,11,0,82,7,72,57,12,44,41,8,139,1,0,82,6,0,102,12,27,66,10,13
2017-08-09T23:59:59Z,84,142,137,81,142,84,136,79,39,20,0,0,0,0,0,0,3,139,2,82,0,142,0,84,0,0,0,0,0,0,0,0,13,82,47,11,59,26,92,41,9,63,24,6,140,2,0,83,6,0,92,39,11,63,23,7,139,3,0,82,7,0,139,3,0,82,7,0,139,3,0,82,7,0,34,95,13,24,59,9,142,0,0,84,5,0,142,0,0,84,5,0,0,123,19,0,77,13,2,126,14,2,78,10,71,59,12,43,41,8,138,3,0,81,7,0,101,14,27,65,11,13
2017-08-10T23:59:59Z,83,138,133,80,138,83,132,78,37,19,0,0,0,0,0,0,3,135,2,81,0,138,0,83,0,0,0,0,0,0,0,0,11,83,44,9,60,25,91,38,9,62,24,6,137,1,0,82,7,0,93,36,9,63,23,6,137,1,0,82,7,0,137,1,0,82,7,0,137,1,0,82,7,0,35,91,12,25,57,8,138,0,0,83,6,0,138,0,0,83,6,0,0,121,17,0,78,11,0,126,12,0,81,8,67,60,11,41,44,7,136,1,0,81,7,0,100,11,27,64,11,13
2017-08-11T23:59:58Z,80,136,131,77,136,80,131,76,32,15,0,0,0,0,0,0,3,133,2,78,0,136,0,80,0,0,0,0,0,0,0,0,11,79,46,9,56,26,90,37,9,61,22,6,136,0,0,80,5,0,91,36,9,62,21,6,136,0,0,80,5,0,136,0,0,80,5,0,136,0,0,80,5,0,36,89,11,25,54,7,136,0,0,80,5,0,136,0,0,80,5,0,1,124,11,1,78,7,1,124,11,1,77,7,68,57,11,41,41,7,135,0,0,79,5,0,99,10,27,63,9,13
2017-08-12T23:59:59Z,81,138,133,78,138,81,133,77,36,18,0,0,0,0,0,0,3,135,2,79,0,138,0,81,0,0,0,0,0,0,0,0,15,77,46,12,56,25,91,38,9,62,23,6,136,2,0,80,6,0,91,36,11,62,21,7,136,2,0,80,6,0,136,2,0,80,6,0,136,2,0,80,6,0,38,87,13,27,53,9,138,0,0,81,5,0,138,0,0,81,5,0,0,123,15,0,76,11,0,125,13,0,77,9,71,55,12,43,39,8,135,2,0,79,6,0,99,12,27,63,10,13
2017-08-13T23:59:59Z,82,137,132,79,137,82,132,78,34,18,0,0,0,0,0,0,3,134,2,80,0,137,0,82,0,0,0,0,0,0,0,0,14,81,42,11,58,23,92,36,9,63,22,6,136,1,0,81,6,0,94,34,9,64,21,6,136,1,0,81,6,0,136,1,0,81,6,0,136,1,0,81,6,0,40,83,14,29,51,10,137,0,0,82,5,0,137,0,0,82,5,0,0,122,15,0,77,10,0,125,12,0,79,8,71,55,11,43,40,7,136,0,0,81,5,0,101,9,27,65,9,13
2017-08-14T23:59:59Z,83,138,133,80,138,83,132,78,33,17,0,0,0,0,0,0,3,135,2,81,0,138,0,83,0,0,0,0,0,0,0,0,11,84,43,9,60,24,93,33,12,64,20,8,137,1,0,82,6,0,93,34,11,63,21,8,137,1,0,82,6,0,137,1,0,82,6,0,137,1,0,82,6,0,45,77,16,32,48,11,138,0,0,83,5,0,138,0,0,83,5,0,1,122,15,1,77,10,1,125,12,1,80,8,69,54,15,42,39,10,136,1,0,81,6,0,101,10,27,65,10,13
2017-08-15T23:59:58Z,82,139,134,79,139,82,133,78,34,16,0,0,0,0,0,0,3,136,2,80,0,139,0,82,0,0,0,0,0,0,0,0,12,82,44,10,59,24,94,36,9,65,21,6,139,0,0,82,5,0,94,36,9,65,21,6,139,0,0,82,5,0,139,0,0,82,5,0,139,0,0,82,5,0,39,85,15,27,52,11,139,0,0,82,5,0,139,0,0,82,5,0,1,125,13,1,78,9,1,126,12,1,78,8,73,54,12,43,40,8,137,1,0,80,6,0,101,11,27,65,9,13
2017-08-16T23:59:58Z,81,136,131,78,136,81,130,76,36,18,0,0,0,0,0,0,3,133,2,79,0,136,0,81,0,0,0,0,0,0,0,0,14,79,43,12,57,23,91,35,10,63,20,7,136,0,0,81,5,0,93,34,9,64,20,6,136,0,0,81,5,0,136,0,0,81,5,0,136,0,0,81,5,0,40,81,15,27,51,10,136,0,0,81,5,0,136,0,0,81,5,0,1,121,14,1,75,10,0,124,12,0,78,8,71,53,12,42,40,8,135,0,0,80,5,0,99,10,27,64,9,13
2017-08-17T23:59:58Z,80,135,130,77,135,80,129,75,36,18,0,0,0,0,0,0,3,132,2,78,0,135,0,80,0,0,0,0,0,0,0,0,12,79,44,10,57,24,89,36,10,61,21,7,135,0,0,80,5,0,88,34,13,61,20,10,135,0,0,80,5,0,135,0,0,80,5,0,135,0,0,80,5,0,43,76,16,28,48,12,135,0,0,80,5,0,135,0,0,80,5,0,0,121,14,0,76,10,2,119,14,2,75,10,71,50,14,40,38,10,134,0,0,79,5,0,98,10,27,63,9,13
2017-08-18T23:59:59Z,79,133,128,76,133,79,127,74,35,17,0,0,0,0,0,0,0,133,0,79,0,133,0,79,0,0,0,0,0,0,0,0,10,80,43,9,58,24,87,35,11,60,21,8,133,0,0,79,5,0,86,34,13,60,20,9,133,0,0,79,5,0,133,0,0,79,5,0,133,0,0,79,5,0,39,82,12,26,52,9,133,0,0,79,5,0,133,0,0,79,5,0,0,121,12,0,76,9,2,120,11,1,76,8,74,49,10,43,38,7,133,0,0,79,5,0,96,10,27,62,9,13
2017-08-19T23:59:59Z,81,137,132,78,137,81,131,76,36,18,0,0,0,0,0,0,3,134,2,79,0,137,0,81,0,0,0,0,0,0,0,0,14,79,44,11,56,24,90,38,9,62,22,6,137,0,0,81,5,0,89,36,12,61,21,9,134,3,0,79,7,0,134,3,0,79,7,0,134,3,0,79,7,0,43,80,14,28,51,9,137,0,0,81,5,0,137,0,0,81,5,0,0,123,14,0,76,10,1,123,13,1,77,9,75,51,11,43,39,7,133,3,0,78,7,0,99,11,27,64,9,13
2017-08-20T23:59:58Z,81,138,133,78,138,81,132,76,35,17,0,0,0,0,0,0,3,135,2,79,0,138,0,81,0,0,0,0,0,0,0,0,13,80,45,10,56,25,91,36,11,61,21,8,136,2,0,80,6,0,89,36,13,60,21,9,136,2,0,80,6,0,136,2,0,80,6,0,136,2,0,80,6,0,40,85,13,27,53,9,138,0,0,81,5,0,138,0,0,81,5,0,2,119,17,2,74,11,2,122,14,1,75,10,69,55,14,39,41,9,135,2,0,79,6,0,99,12,27,63,10,13
2017-08-21T23:59:59Z,80,134,129,77,134,80,128,75,33,17,0,0,0,0,0,0,3,131,2,78,0,134,0,80,0,0,0,0,0,0,0,0,11,79,44,9,56,25,88,35,11,60,21,8,134,0,0,80,5,0,90,32,12,61,19,9,134,0,0,80,5,0,134,0,0,80,5,0,134,0,0,80,5,0,43,78,13,29,48,9,134,0,0,80,5,0,134,0,0,80,5,0,2,115,17,1,73,12,3,118,13,2,75,9,69,52,13,40,40,9,133,0,0,79,5,0,98,9,27,63,9,13